{"data":{"norad_id":50846,"epoch":"2026-05-25T04:18:43.085376Z","epoch_age_seconds":58732,"freshness":"FRESH","line1":"1 50846U 22001AV  26145.17966534 -.00000093  00000+0  12265-4 0  9999","line2":"2 50846  53.2129 195.8608 0001067  75.5575 284.5536 15.08834473241814","mean_motion":15.08834473,"eccentricity":0.0001067,"inclination_deg":53.2129,"raan_deg":195.8608,"arg_perigee_deg":75.5575,"mean_anomaly_deg":284.5536,"bstar":1.2265e-5,"rev_number":24181,"period_min":95.437904274341,"perigee_km":539.02214320348,"apogee_km":540.49842248364,"semimajor_km":6917.8972828436,"source":"CELESTRAK","updated_at":"2026-05-25T13:38:16.883046Z"}}